Madison, WI

2:03 AM CDT on September 15, 2019 (GMT -0500)
Dane County Regional-Truax

Weather History for KMSN - July, 2019

Change the Weather History Date:

Wednesday, July 31, 2019

  Actual Average Record
Temperature  
Mean Temperature 67 °F 71 °F  
Max Temperature 80 °F 81 °F 95 °F (1988)
Min Temperature 53 °F 61 °F 43 °F (1971)
Degree Days  
Heating Degree Days 0 0  
Month to date heating degree days 0 0  
Since 1 June heating degree days 42 70  
Since 1 July heating degree days 0 10  
Cooling Degree Days 2 6  
Month to date cooling degree days 323 206  
Year to date cooling degree days 441 356  
Since 1 June cooling degree days 421 326  
Growing Degree Days 16 (Base 50)    
Moisture  
Dew Point 55 °F    
Average Humidity 70    
Maximum Humidity 100    
Minimum Humidity 39    
Precipitation  
Precipitation 0.00 in 0.13 in 1.78 in (1955)
Month to date precipitation 5.77 4.18  
Year to date precipitation 26.74 20.55  
Snow  
Snow 0.00 in 0.00 in 0.00 in (2018)
Month to date snowfall 0.0 0.0  
Since 1 June snowfall 0.0 0.0  
Since 1 July snowfall 0.0 0.0  
Snow Depth 0.00 in    
Sea Level Pressure  
Sea Level Pressure 30.16 in    
Wind  
Wind Speed 3 mph (ENE)    
Max Wind Speed 8 mph    
Max Gust Speed 13 mph    
Visibility 10 miles    
Events      
T = Trace of Precipitation, MM = Missing Value Source: NWS Daily Summary

Daily Weather History Graph

Daily Weather History Graph

Search for Another Location

Airport or City:

Astronomy

Jul. 31, 2019 Rise Set
Actual Time 5:46 AM CDT 8:20 PM CDT
Civil Twilight 5:14 AM CDT 8:52 PM CDT
Nautical Twilight 4:33 AM CDT 9:33 PM CDT
Astronomical Twilight 3:47 AM CDT 10:18 PM CDT
Moon 4:58 AM CDT (7/31) 8:20 PM CDT (7/31)
Length of Visible Light 15h 38m
Length of Day
14h 33m
Waning Crescent, 0% of the Moon is Illuminated
Jul 31
Waning Crescent
Jul 31
New
Aug 7
First Quarter
Aug 15
Full
Aug 23
Last Quarter

Hourly Weather History & Observations

Time (CDT) Temp. Dew Point Humidity Pressure Visibility Wind Dir Wind Speed Gust Speed Precip Events Conditions
12:53 AM 57.9 °F 55.9 °F 93% 30.14 in 10.0 mi Calm Calm - N/A   Clear
1:53 AM 62.1 °F 55.9 °F 80% 30.14 in 10.0 mi Calm Calm - N/A   Clear
2:53 AM 55.9 °F 55.0 °F 97% 30.14 in 10.0 mi Calm Calm - N/A   Clear
3:53 AM 55.0 °F 54.0 °F 96% 30.14 in 10.0 mi Calm Calm - N/A   Clear
4:53 AM 55.0 °F 54.0 °F 96% 30.15 in 8.0 mi Calm Calm - N/A   Clear
5:53 AM 54.0 °F 54.0 °F 100% 30.16 in 7.0 mi NNW 3.5 mph - N/A   Partly Cloudy
6:53 AM 57.9 °F 55.0 °F 90% 30.17 in 10.0 mi Calm Calm - N/A   Partly Cloudy
7:53 AM 64.9 °F 59.0 °F 81% 30.18 in 10.0 mi Calm Calm - N/A   Partly Cloudy
8:53 AM 66.9 °F 59.0 °F 76% 30.20 in 10.0 mi Variable 3.5 mph - N/A   Partly Cloudy
9:53 AM 70.0 °F 57.0 °F 63% 30.20 in 10.0 mi Calm Calm - N/A   Partly Cloudy
10:53 AM 72.0 °F 55.0 °F 55% 30.20 in 10.0 mi Calm Calm - N/A   Scattered Clouds
11:53 AM 75.9 °F 54.0 °F 46% 30.19 in 10.0 mi Calm Calm - N/A   Scattered Clouds
12:53 PM 73.0 °F 55.0 °F 53% 30.19 in 10.0 mi WNW 3.5 mph - N/A   Mostly Cloudy
1:53 PM 77.0 °F 53.1 °F 43% 30.18 in 10.0 mi Variable 5.8 mph - N/A   Mostly Cloudy
2:53 PM 77.0 °F 50.0 °F 39% 30.17 in 10.0 mi Variable 3.5 mph - N/A   Mostly Cloudy
3:53 PM 79.0 °F 53.1 °F 40% 30.15 in 10.0 mi Variable 3.5 mph - N/A   Scattered Clouds
4:53 PM 79.0 °F 53.1 °F 40% 30.14 in 10.0 mi NNW 3.5 mph - N/A   Scattered Clouds
5:53 PM 77.0 °F 55.0 °F 47% 30.14 in 10.0 mi East 8.1 mph - N/A   Scattered Clouds
6:53 PM 75.9 °F 55.0 °F 48% 30.14 in 10.0 mi ENE 4.6 mph - N/A   Scattered Clouds
7:53 PM 73.0 °F 55.0 °F 53% 30.15 in 10.0 mi East 4.6 mph - N/A   Scattered Clouds
8:53 PM 66.0 °F 57.0 °F 73% 30.15 in 10.0 mi Calm Calm - N/A   Partly Cloudy
9:53 PM 63.0 °F 57.0 °F 81% 30.17 in 10.0 mi Calm Calm - N/A   Partly Cloudy
10:53 PM 64.0 °F 57.0 °F 78% 30.17 in 10.0 mi SE 6.9 mph - N/A   Clear
11:53 PM 63.0 °F 55.0 °F 75% 30.17 in 10.0 mi SE 5.8 mph - N/A   Clear